Weather History for Mount Carmel, IL

Change the Weather History Date:

Saturday, June 8, 2013

  Actual Average (KLWV) Record (KLWV)
Temperature  
Mean Temperature 70 °F 73 °F  
Max Temperature 80 °F 83 °F 99 °F (2011)
Min Temperature 60 °F 62 °F 54 °F (2012)
Degree Days  
Heating Degree Days 0 0  
Month to date heating degree days 6  
Since 1 June heating degree days 6  
Since 1 July heating degree days 4679  
Cooling Degree Days 5 8  
Month to date cooling degree days 59  
Year to date cooling degree days 198  
Since 1 June cooling degree days 59  
Growing Degree Days 20 (Base 50)    
Moisture  
Dew Point 59 °F    
Average Humidity 68    
Maximum Humidity 100    
Minimum Humidity 42    
Precipitation  
Precipitation 0.00 in 0.15 in 1.01 in (1979)
Month to date precipitation 1.25  
Year to date precipitation 18.81  
Sea Level Pressure  
Sea Level Pressure 29.95 in    
Wind  
Wind Speed 1 mph (SSW)    
Max Wind Speed 8 mph    
Max Gust Speed -    
Visibility 8 miles    
Events      
T = Trace of Precipitation, MM = Missing Value Source: NWS Daily Summary

Daily Weather History Graph

Daily Weather History Graph

Search for Another Location

Airport:

Trip Planner

Search our weather history database for the weather conditions in past years. The results will help you decide how hot, cold, wet, or windy it might be!

Date:

Astronomy

Jun. 08, 2013 Rise Set
Actual Time 5:26 AM CDT 8:14 PM CDT
Civil Twilight 4:54 AM CDT 8:45 PM CDT
Nautical Twilight 4:15 AM CDT 9:25 PM CDT
Astronomical Twilight 3:29 AM CDT 10:10 PM CDT
Moon 5:33 AM CDT (6/8) 8:16 PM CDT (6/8)
Length of Visible Light 15h 50m
Length of Day
14h 47m
New Moon, 0% of the Moon is Illuminated
Jun 8
New Moon
Jun 16
First Quarter
Jun 23
Full
Jun 29
Last Quarter
Jul 8
New

Hourly Weather History & Observations

Time (CDT) Temp. Heat Index Dew Point Humidity Pressure Visibility Wind Dir Wind Speed Gust Speed Precip Events Conditions
12:15 AM 62.6 °F - 60.8 °F 94% 29.89 in 7.0 mi Calm Calm - N/A   Clear
12:35 AM 62.6 °F - 60.8 °F 94% 29.89 in 5.0 mi Calm Calm - N/A   Clear
12:55 AM 62.6 °F - 60.8 °F 94% 29.89 in 5.0 mi Calm Calm - N/A   Clear
1:15 AM 62.6 °F - 60.8 °F 94% 29.89 in 5.0 mi Calm Calm - N/A   Clear
1:35 AM 62.6 °F - 60.8 °F 94% 29.89 in 4.0 mi Calm Calm - N/A   Clear
1:55 AM 60.8 °F - 59.0 °F 94% 29.89 in 3.0 mi WNW 3.5 mph - N/A   Mist
2:15 AM 60.8 °F - 59.0 °F 94% 29.89 in 3.0 mi Calm Calm - N/A   Mist
2:35 AM 60.8 °F - 60.8 °F 100% 29.89 in 3.0 mi Calm Calm - N/A   Mist
2:55 AM 60.8 °F - 60.8 °F 100% 29.89 in 3.0 mi Calm Calm - N/A   Overcast
3:15 AM 60.8 °F - 60.8 °F 100% 29.90 in 3.0 mi Calm Calm - N/A   Overcast
3:35 AM 62.6 °F - 60.8 °F 94% 29.90 in 3.0 mi Calm Calm - N/A   Overcast
3:55 AM 62.6 °F - 60.8 °F 94% 29.90 in 3.0 mi Calm Calm - N/A   Overcast
4:15 AM 62.6 °F - 60.8 °F 94% 29.90 in 4.0 mi Calm Calm - N/A   Mostly Cloudy
4:55 AM 62.6 °F - 60.8 °F 94% 29.91 in 4.0 mi Calm Calm - N/A   Mostly Cloudy
5:15 AM 62.6 °F - 59.0 °F 88% 29.91 in 4.0 mi Calm Calm - N/A   Mostly Cloudy
5:35 AM 62.6 °F - 60.8 °F 94% 29.92 in 3.0 mi NNW 3.5 mph - N/A   Mist
5:55 AM 62.6 °F - 60.8 °F 94% 29.93 in 1.5 mi NW 3.5 mph - N/A   Scattered Clouds
6:15 AM 62.6 °F - 60.8 °F 94% 29.93 in 1.5 mi Calm Calm - N/A   Mist
6:35 AM 62.6 °F - 60.8 °F 94% 29.93 in 1.5 mi Calm Calm - N/A   Mist
6:55 AM 62.6 °F - 60.8 °F 94% 29.94 in 2.0 mi Calm Calm - N/A   Clear
7:15 AM 64.4 °F - 60.8 °F 88% 29.94 in 3.0 mi Calm Calm - N/A   Clear
7:35 AM 64.4 °F - 62.6 °F 94% 29.94 in 3.0 mi Calm Calm - N/A   Clear
7:55 AM 66.2 °F - 62.6 °F 88% 29.96 in 4.0 mi Calm Calm - N/A   Clear
8:15 AM 68.0 °F - 62.6 °F 83% 29.96 in 5.0 mi Calm Calm - N/A   Haze
8:35 AM 68.0 °F - 62.6 °F 83% 29.98 in 5.0 mi Calm Calm - N/A   Haze
8:55 AM 69.8 °F - 62.6 °F 78% 29.98 in 5.0 mi Calm Calm - N/A   Haze
9:15 AM 71.6 °F - 62.6 °F 73% 29.98 in 7.0 mi Calm Calm - N/A   Clear
9:35 AM 71.6 °F - 60.8 °F 69% 29.97 in 7.0 mi Calm Calm - N/A   Clear
9:55 AM 73.4 °F - 60.8 °F 65% 29.97 in 10.0 mi Calm Calm - N/A   Clear
10:15 AM 75.2 °F - 60.8 °F 61% 29.97 in 7.0 mi ESE 3.5 mph - N/A   Clear
10:35 AM 75.2 °F - 60.8 °F 61% 29.98 in 10.0 mi South 3.5 mph - N/A   Clear
10:55 AM 77.0 °F - 60.8 °F 57% 29.98 in 10.0 mi South 3.5 mph - N/A   Scattered Clouds
11:15 AM 75.2 °F - 59.0 °F 57% 29.98 in 10.0 mi Calm Calm - N/A   Mostly Cloudy
11:35 AM 77.0 °F - 57.2 °F 50% 29.98 in 10.0 mi Calm Calm - N/A   Scattered Clouds
11:55 AM 77.0 °F - 59.0 °F 54% 29.97 in 10.0 mi Calm Calm - N/A   Scattered Clouds
12:15 PM 78.8 °F - 55.4 °F 44% 29.97 in 10.0 mi SSW 3.5 mph - N/A   Scattered Clouds
12:35 PM 77.0 °F - 57.2 °F 50% 29.96 in 10.0 mi WSW 5.8 mph - N/A   Scattered Clouds
12:55 PM 78.8 °F - 57.2 °F 47% 29.96 in 10.0 mi SW 6.9 mph - N/A   Scattered Clouds
1:15 PM 78.8 °F - 55.4 °F 44% 29.96 in 10.0 mi SW 3.5 mph - N/A   Clear
1:35 PM 80.6 °F 80.5 °F 55.4 °F 42% 29.97 in 5.0 mi Calm Calm - N/A   Haze
1:55 PM 80.6 °F 80.5 °F 55.4 °F 42% 29.96 in 10.0 mi South 5.8 mph - N/A   Scattered Clouds
2:15 PM 80.6 °F 80.5 °F 55.4 °F 42% 29.96 in 10.0 mi WSW 3.5 mph - N/A   Scattered Clouds
2:35 PM 78.8 °F - 53.6 °F 42% 29.95 in 10.0 mi Calm Calm - N/A   Clear
2:55 PM 80.6 °F 80.5 °F 55.4 °F 42% 29.95 in 10.0 mi Calm Calm - N/A   Clear
3:15 PM 80.6 °F 80.5 °F 55.4 °F 42% 29.95 in 10.0 mi West 5.8 mph - N/A   Clear
3:35 PM 80.6 °F 80.5 °F 55.4 °F 42% 29.95 in 10.0 mi South 4.6 mph - N/A   Scattered Clouds
3:55 PM 80.6 °F 80.5 °F 55.4 °F 42% 29.95 in 10.0 mi SW 4.6 mph - N/A   Clear
4:15 PM 78.8 °F - 53.6 °F 42% 29.95 in 10.0 mi Calm Calm - N/A   Mostly Cloudy
4:35 PM 80.6 °F 80.5 °F 55.4 °F 42% 29.95 in 10.0 mi SW 4.6 mph - N/A   Mostly Cloudy
4:55 PM 80.6 °F 80.5 °F 55.4 °F 42% 29.95 in 10.0 mi SW 5.8 mph - N/A   Overcast
5:15 PM 80.6 °F 80.5 °F 55.4 °F 42% 29.95 in 10.0 mi South 3.5 mph - N/A   Scattered Clouds
5:35 PM 80.6 °F 80.5 °F 55.4 °F 42% 29.94 in 10.0 mi WSW 4.6 mph - N/A   Scattered Clouds
5:55 PM 80.6 °F 80.5 °F 55.4 °F 42% 29.94 in 10.0 mi SW 6.9 mph - N/A   Scattered Clouds
6:15 PM 80.6 °F 80.5 °F 55.4 °F 42% 29.94 in 10.0 mi SSW 4.6 mph - N/A   Mostly Cloudy
6:35 PM 78.8 °F - 57.2 °F 47% 29.95 in 10.0 mi SW 8.1 mph - N/A   Mostly Cloudy
6:55 PM 77.0 °F - 59.0 °F 54% 29.96 in 10.0 mi SW 5.8 mph - N/A   Scattered Clouds
7:15 PM 78.8 °F - 59.0 °F 51% 29.96 in 10.0 mi South 4.6 mph - N/A   Scattered Clouds
7:35 PM 77.0 °F - 59.0 °F 54% 29.96 in 10.0 mi SSW 4.6 mph - N/A   Overcast
7:55 PM 77.0 °F - 59.0 °F 54% 29.97 in 10.0 mi SSW 4.6 mph - N/A   Overcast
8:15 PM 77.0 °F - 59.0 °F 54% 29.97 in 10.0 mi Calm Calm - N/A   Overcast
8:35 PM 77.0 °F - 59.0 °F 54% 29.97 in 10.0 mi Calm Calm - N/A   Overcast
8:55 PM 75.2 °F - 60.8 °F 61% 29.97 in 10.0 mi SSE 3.5 mph - N/A   Overcast
9:15 PM 73.4 °F - 60.8 °F 65% 29.98 in 10.0 mi SSE 4.6 mph - N/A   Scattered Clouds
9:35 PM 71.6 °F - 64.4 °F 78% 29.98 in 10.0 mi SSE 3.5 mph - N/A   Clear
9:55 PM 71.6 °F - 62.6 °F 73% 29.98 in 10.0 mi Calm Calm - N/A   Mostly Cloudy
10:15 PM 71.6 °F - 60.8 °F 69% 29.99 in 10.0 mi Calm Calm - N/A   Overcast
10:35 PM 71.6 °F - 60.8 °F 69% 30.00 in 10.0 mi Calm Calm - N/A   Overcast
10:55 PM 71.6 °F - 60.8 °F 69% 30.00 in 10.0 mi Calm Calm - N/A   Overcast
11:15 PM 71.6 °F - 60.8 °F 69% 30.01 in 10.0 mi Calm Calm - N/A   Overcast
11:35 PM 71.6 °F - 64.4 °F 78% 30.01 in 10.0 mi Calm Calm - N/A   Overcast
11:55 PM 71.6 °F - 62.6 °F 73% 30.01 in 10.0 mi Calm Calm - N/A   Scattered Clouds